Location: Kaarina
(60.4167°N, 22.4167°E)
Time: 19:00:08
(UTC+03:00)

GP-B - Pass Details

Date: 24 August 2019
Orbit: 632 x 635 km, 89.8° (Epoch: 23 October)

Event Time Altitude Azimuth Distance (km) Brightness Sun altitude
Rises 22:43:39 0° 358° (N) 2,952 7.4 -11.1°
Reaches altitude 10° 22:45:55 10° 354° (N) 2,039 6.6 -11.3°
Maximum altitude 22:50:17 54° 278° (W) 783 3.9 -11.7°
Drops below altitude 10° 22:54:37 10° 202° (SSW) 2,024 5.4 -12.0°
Enters shadow 22:56:50 - 198° (SSW) 2,918 6.2 -12.2°
